Content
SEND FEEDBACK

Daily
Averages
Monthly
Summary
United States of America

IMPERIAL BEACH, CALIFORNIA


Home > North America > United States > California
Elevation: 26 feet     Latitude: 32 34N     Longitude: 117 07W

WEATHER
 
SELECT A DAY
Number of Records: 202,659;   Date Range: 1/1/95 - 7/23/14
 
SHARE

PRINT THIS DATA

[ ← Previous Day ]
WEATHER ALMANAC - FEBRUARY 13, 2013
[ Next Day → ]
[ °C ]   °F
Weather ElementAverageHighLow
Temperature49.3 °F62.1 °F (11:53 am)36 °F (6:53 am)
Dewpoint40.3 °F50 °F (6:53 pm)28.9 °F (5:53 am)
Humidity74.8 %100 % (8:37 pm)34 % (11:53 am)
Barometer30.20 in30.26 in (8:53 am)30.15 in (3:53 pm)
Wind Speed4.5 mph10.4 mph (12:53 pm)
Weather ElementAverage
Visibility8.5 mi
Wind DirectionSE (129.6 °)

Weather ElementTotal
Precipitation---
Heating Degree Days16 (Base 65)
Averaged from 26 records on February 13, 2013
WEATHER CONDITIONS BREAKOUT
WIND DIRECTION BREAKOUT
WEATHER BY HOUR - FEBRUARY 13, 2013
[ °C ]   °F
Local TimeTemperatureDewpointHumidityBarometerVisibilityWind DirectionWind SpeedGust SpeedPrecipitationEventsConditions
1:53 AM42.1 °F36.0 °F79 %30.24 in10.0 miSE (130°)4.6 mphClear
2:53 AM41.0 °F35.1 °F79 %30.23 in10.0 miSSE (150°)5.8 mphClear
3:53 AM37.0 °F32.0 °F82 %30.23 in10.0 miESE (120°)6.9 mphClear
4:53 AM37.9 °F30.9 °F76 %30.23 in10.0 miSE (130°)4.6 mphClear
5:53 AM37.0 °F28.9 °F73 %30.24 in10.0 miSE (130°)5.8 mphClear
6:53 AM36.0 °F28.9 °F76 %30.25 in10.0 miSE (130°)5.8 mphClear
7:53 AM44.1 °F32.0 °F63 %30.25 in10.0 miSSE (150°)6.9 mphClear
8:53 AM50.0 °F33.1 °F52 %30.26 in10.0 miSouth (170°)4.6 mphClear
9:53 AM55.9 °F30.9 °F39 %30.25 in10.0 miCalmClear
10:53 AM61.0 °F35.1 °F38 %30.24 in10.0 miVariable3.5 mphClear
11:53 AM62.1 °F33.1 °F34 %30.21 in10.0 miWNW (290°)5.8 mphClear
12:53 PM61.0 °F37.9 °F42 %30.19 in10.0 miWest (280°)10.4 mphClear
1:53 PM60.1 °F42.1 °F51 %30.17 in10.0 miWest (280°)9.2 mphClear
2:53 PM59.0 °F45.0 °F60 %30.16 in10.0 miWNW (290°)8.1 mphClear
3:53 PM57.9 °F48.0 °F70 %30.15 in10.0 miWest (270°)8.1 mphClear
4:53 PM55.0 °F48.9 °F80 %30.15 in10.0 miWest (280°)8.1 mphClear
5:53 PM53.1 °F48.9 °F86 %30.16 in10.0 miCalmClear
6:53 PM52.0 °F50.0 °F93 %30.17 in10.0 miCalmClear
7:53 PM50.0 °F48.9 °F96 %30.17 in9.0 miCalmClear
8:37 PM46.4 °F46.4 °F100 %30.17 in1.5 miCalmClear
8:44 PM48.2 °F46.4 °F93 %30.17 in1.0 miESE (120°)3.5 mphMist
8:47 PM48.2 °F46.4 °F93 %30.17 in2.5 miCalmClear
8:53 PM48.9 °F46.9 °F93 %30.17 in9.0 miESE (120°)3.5 mphClear
9:53 PM48.9 °F48.0 °F97 %30.17 in8.0 miSE (130°)4.6 mphClear
10:53 PM46.0 °F46.0 °F100 %30.17 in4.0 miESE (110°)3.5 mphClear
11:53 PM43.0 °F43.0 °F100 %30.17 in6.0 miEast (90°)3.5 mphClear
Hourly data recorded from KSDM, located miles away from Imperial Beach, California







STORIES FROM OUR PARTNERS